星链-30701 (STARLINK-30701 )

导读

STARLINK-30701是美国SpaceX星链星座中的一颗卫星,于2023年9月25日发射入轨。星链项目旨在构建全球卫星互联网通信网络,为全球各地提供低延迟、高速率的宽带服务,该卫星加入星座后进一步扩充了星链的服务覆盖范围与网络容量,助力低轨卫星通信体系的部署。

Basic Information
目录编号:
57950
目录名称:
STARLINK-30701
国际标识:
2023-148R
轨道中心:
EARTH
卫星名称:
星链-30701
卫星全名:
星链-30701 (STARLINK-30701 )
卫星状态:
在轨 (已飞行997 天)
发射日期:
2023-09-25 UTC
国别 :
美国 (US)
星等 :
--
Orbit Information
数据来源 国际轨道数据
星历时间: 2026-06-17T20:18:01+0800
23小时前
查看轨道信息
半长轴: 6840.867km
偏心率: 0.000144
轨道倾角: 53.163°
近地点辐角 93.175°
升交点赤经 280.031°
平近点角 266.942°
近地点: 461.744km
远地点: 463.716km
周期: 93.848分钟
每日圈数: 15.343913
Detailed Information
固有亮度:
5
最大亮度:
0.3
卫星平台:
Starlink v2.0 mini
覆盖范围:
全球
运营商:
太空探索技术公司
运营商所在国:
美国
制造商(研发单位):
太空探索技术公司
制造商所在国:
美国
使用方式:
暂无
Satellite Introduction
星链(Starlink)计划是由太空探索技术公司(SpaceX)提出的一个巨型低轨卫星互联网星座项目,计划在2019年至2024年间在太空搭建由约1.2万颗卫星组成的“星链”网络,其中1584颗将部署在地球上空550千米处的近地轨道,并从2020年开始工作。该卫星仍在工作。
2D Orbit Map
3D Orbit Map
Orbit Altitude Analysis Chart
Orbit Inclination Analysis Chart
Orbit Comprehensive Analysis Chart
View Comprehensive Chart